Location: Gouvernes
(48.8601°N, 2.6907°E)
Time: 04:37:15
(UTC+00:00)

YAOGAN 1 - Pass Details

Date: 16 October 2021
Orbit: 618 x 620 km, 97.9° (Epoch: 30 November)

Event Time Altitude Azimuth Distance (km) Brightness Sun altitude
Rises 18:03:24 0° 151° (SSE) 2,886 5.7 -11.6°
Reaches altitude 10° 18:05:37 10° 146° (SSE) 1,985 4.8 -12.0°
Maximum altitude 18:09:48 52° 71° (ENE) 778 2.7 -12.7°
Drops below altitude 10° 18:14:02 10° 355° (N) 2,000 5.2 -13.3°
Sets 18:16:16 0° 351° (N) 2,911 6.2 -13.7°
